Year,Month,Day,Hour,Minute,Value (Times are PST for temperature in C)
2016,08,26,00,00,14.90
2016,08,26,00,01,14.90
2016,08,26,00,02,14.90
2016,08,26,00,03,14.90
2016,08,26,00,04,14.90
2016,08,26,00,05,14.90
2016,08,26,00,06,14.90
2016,08,26,00,07,14.90
2016,08,26,00,08,14.90
2016,08,26,00,09,15.00
2016,08,26,00,10,15.00
2016,08,26,00,11,15.00
2016,08,26,00,12,15.00
2016,08,26,00,13,15.00
2016,08,26,00,14,15.00
2016,08,26,00,15,14.90
2016,08,26,00,16,14.90
2016,08,26,00,17,14.90
2016,08,26,00,18,14.90
2016,08,26,00,19,14.90
2016,08,26,00,20,14.90
2016,08,26,00,21,14.90
2016,08,26,00,22,14.90
2016,08,26,00,23,14.90
2016,08,26,00,24,14.90
2016,08,26,00,25,14.90
2016,08,26,00,26,14.90
2016,08,26,00,27,14.90
2016,08,26,00,28,14.90
2016,08,26,00,29,15.00
2016,08,26,00,30,15.00
2016,08,26,00,31,15.00
2016,08,26,00,32,15.00
2016,08,26,00,33,15.00
2016,08,26,00,34,15.00
2016,08,26,00,35,15.10
2016,08,26,00,36,15.10
2016,08,26,00,37,15.10
2016,08,26,00,38,15.10
2016,08,26,00,39,15.00
2016,08,26,00,40,15.00
2016,08,26,00,41,15.00
2016,08,26,00,42,15.00
2016,08,26,00,43,15.10
2016,08,26,00,44,15.00
2016,08,26,00,45,15.00
2016,08,26,00,46,15.00
2016,08,26,00,47,15.00
2016,08,26,00,48,15.00
2016,08,26,00,49,15.00
2016,08,26,00,50,15.00
2016,08,26,00,51,15.00
2016,08,26,00,52,14.90
2016,08,26,00,53,14.90
2016,08,26,00,54,14.90
2016,08,26,00,55,14.90
2016,08,26,00,56,14.90
2016,08,26,00,57,14.80
2016,08,26,00,58,14.80
2016,08,26,00,59,14.80
2016,08,26,01,00,14.90
2016,08,26,01,01,14.90
2016,08,26,01,02,14.90
2016,08,26,01,03,14.90
2016,08,26,01,04,14.90
2016,08,26,01,05,14.90
2016,08,26,01,06,15.00
2016,08,26,01,07,15.00
2016,08,26,01,08,15.00
2016,08,26,01,09,15.00
2016,08,26,01,10,15.00
2016,08,26,01,11,14.90
2016,08,26,01,12,14.90
2016,08,26,01,13,14.90
2016,08,26,01,14,14.90
2016,08,26,01,15,14.90
2016,08,26,01,16,14.90
2016,08,26,01,17,14.90
2016,08,26,01,18,14.90
2016,08,26,01,19,14.90
2016,08,26,01,20,14.80
2016,08,26,01,21,14.80
2016,08,26,01,22,14.80
2016,08,26,01,23,14.80
2016,08,26,01,24,14.80
2016,08,26,01,25,14.80
2016,08,26,01,26,14.80
2016,08,26,01,27,14.80
2016,08,26,01,28,14.80
2016,08,26,01,29,14.80
2016,08,26,01,30,14.80
2016,08,26,01,31,14.90
2016,08,26,01,32,14.90
2016,08,26,01,33,14.90
2016,08,26,01,34,14.90
2016,08,26,01,35,15.00
2016,08,26,01,36,15.00
2016,08,26,01,37,15.00
2016,08,26,01,38,15.00
2016,08,26,01,39,15.00
2016,08,26,01,40,15.00
2016,08,26,01,41,15.00
2016,08,26,01,42,15.00
2016,08,26,01,43,15.00
2016,08,26,01,44,15.00
2016,08,26,01,45,15.00
2016,08,26,01,46,14.90
2016,08,26,01,47,14.90
2016,08,26,01,48,14.90
2016,08,26,01,49,14.90
2016,08,26,01,50,14.90
2016,08,26,01,51,14.90
2016,08,26,01,52,14.90
2016,08,26,01,53,14.80
2016,08,26,01,54,14.80
2016,08,26,01,55,14.80
2016,08,26,01,56,14.80
2016,08,26,01,57,14.80
2016,08,26,01,58,14.70
2016,08,26,01,59,14.70
2016,08,26,02,00,14.70
2016,08,26,02,01,14.70
2016,08,26,02,02,14.70
2016,08,26,02,03,14.70
2016,08,26,02,04,14.60
2016,08,26,02,05,14.60
2016,08,26,02,06,14.60
2016,08,26,02,07,14.60
2016,08,26,02,08,14.60
2016,08,26,02,09,14.60
2016,08,26,02,10,14.60
2016,08,26,02,11,14.60
2016,08,26,02,12,14.60
2016,08,26,02,13,14.60
2016,08,26,02,14,14.60
2016,08,26,02,15,14.60
2016,08,26,02,16,14.60
2016,08,26,02,17,14.60
2016,08,26,02,18,14.60
2016,08,26,02,19,14.60
2016,08,26,02,20,14.60
2016,08,26,02,21,14.60
2016,08,26,02,22,14.60
2016,08,26,02,23,14.60
2016,08,26,02,24,14.60
2016,08,26,02,25,14.60
2016,08,26,02,26,14.60
2016,08,26,02,27,14.50
2016,08,26,02,28,14.50
2016,08,26,02,29,14.50
2016,08,26,02,30,14.50
2016,08,26,02,31,14.50
2016,08,26,02,32,14.50
2016,08,26,02,33,14.60
2016,08,26,02,34,14.60
2016,08,26,02,35,14.60
2016,08,26,02,36,14.60
2016,08,26,02,37,14.60
2016,08,26,02,38,14.60
2016,08,26,02,39,14.60
2016,08,26,02,40,14.60
2016,08,26,02,41,14.60
2016,08,26,02,42,14.60
2016,08,26,02,43,14.60
2016,08,26,02,44,14.70
2016,08,26,02,45,14.70
2016,08,26,02,46,14.70
2016,08,26,02,47,14.70
2016,08,26,02,48,14.70
2016,08,26,02,49,14.70
2016,08,26,02,50,14.70
2016,08,26,02,51,14.70
2016,08,26,02,52,14.70
2016,08,26,02,53,14.70
2016,08,26,02,54,14.70
2016,08,26,02,55,14.70
2016,08,26,02,56,14.80
2016,08,26,02,57,14.80
2016,08,26,02,58,14.80
2016,08,26,02,59,14.80
2016,08,26,03,00,14.80
2016,08,26,03,01,14.80
2016,08,26,03,02,14.80
2016,08,26,03,03,14.80
2016,08,26,03,04,14.90
2016,08,26,03,05,14.90
2016,08,26,03,06,15.00
2016,08,26,03,07,15.10
2016,08,26,03,08,15.20
2016,08,26,03,09,15.30
2016,08,26,03,10,15.30
2016,08,26,03,11,15.40
2016,08,26,03,12,15.40
2016,08,26,03,13,15.40
2016,08,26,03,14,15.40
2016,08,26,03,15,15.40
2016,08,26,03,16,15.40
2016,08,26,03,17,15.40
2016,08,26,03,18,15.50
2016,08,26,03,19,15.50
2016,08,26,03,20,15.60
2016,08,26,03,21,15.60
2016,08,26,03,22,15.60
2016,08,26,03,23,15.60
2016,08,26,03,24,15.60
2016,08,26,03,25,15.60
2016,08,26,03,26,15.60
2016,08,26,03,27,15.60
2016,08,26,03,28,15.50
2016,08,26,03,29,15.50
2016,08,26,03,30,15.50
2016,08,26,03,31,15.40
2016,08,26,03,32,15.40
2016,08,26,03,33,15.40
2016,08,26,03,34,15.40
2016,08,26,03,35,15.30
2016,08,26,03,36,15.20
2016,08,26,03,37,15.20
2016,08,26,03,38,15.20
2016,08,26,03,39,15.10
2016,08,26,03,40,15.10
2016,08,26,03,41,15.10
2016,08,26,03,42,15.10
2016,08,26,03,43,15.00
2016,08,26,03,44,15.00
2016,08,26,03,45,14.90
2016,08,26,03,46,14.90
2016,08,26,03,47,14.90
2016,08,26,03,48,14.90
2016,08,26,03,49,14.90
2016,08,26,03,50,14.90
2016,08,26,03,51,14.90
2016,08,26,03,52,14.90
2016,08,26,03,53,15.00
2016,08,26,03,54,15.00
2016,08,26,03,55,15.00
2016,08,26,03,56,15.00
2016,08,26,03,57,14.90
2016,08,26,03,58,14.90
2016,08,26,03,59,14.90
2016,08,26,04,00,15.00
2016,08,26,04,01,15.00
2016,08,26,04,02,15.00
2016,08,26,04,03,15.10
2016,08,26,04,04,15.10
2016,08,26,04,05,15.10
2016,08,26,04,06,15.10
2016,08,26,04,07,15.10
2016,08,26,04,08,15.10
2016,08,26,04,09,15.10
2016,08,26,04,10,15.10
2016,08,26,04,11,15.10
2016,08,26,04,12,15.10
2016,08,26,04,13,15.10
2016,08,26,04,14,15.00
2016,08,26,04,15,15.00
2016,08,26,04,16,14.90
2016,08,26,04,17,14.90
2016,08,26,04,18,14.90
2016,08,26,04,19,14.80
2016,08,26,04,20,14.80
2016,08,26,04,21,14.80
2016,08,26,04,22,14.70
2016,08,26,04,23,14.70
2016,08,26,04,24,14.70
2016,08,26,04,25,14.70
2016,08,26,04,26,14.70
2016,08,26,04,27,14.70
2016,08,26,04,28,14.70
2016,08,26,04,29,14.70
2016,08,26,04,30,14.80
2016,08,26,04,31,14.70
2016,08,26,04,32,14.80
2016,08,26,04,33,14.80
2016,08,26,04,34,14.70
2016,08,26,04,35,14.70
2016,08,26,04,36,14.70
2016,08,26,04,37,14.60
2016,08,26,04,38,14.50
2016,08,26,04,39,14.50
2016,08,26,04,40,14.40
2016,08,26,04,41,14.40
2016,08,26,04,42,14.30
2016,08,26,04,43,14.30
2016,08,26,04,44,14.40
2016,08,26,04,45,14.40
2016,08,26,04,46,14.40
2016,08,26,04,47,14.40
2016,08,26,04,48,14.40
2016,08,26,04,49,14.40
2016,08,26,04,50,14.40
2016,08,26,04,51,14.40
2016,08,26,04,52,14.40
2016,08,26,04,53,14.40
2016,08,26,04,54,14.40
2016,08,26,04,55,14.30
2016,08,26,04,56,14.30
2016,08,26,04,57,14.30
2016,08,26,04,58,14.30
2016,08,26,04,59,14.40
2016,08,26,05,00,14.40
2016,08,26,05,01,14.40
2016,08,26,05,02,14.40
2016,08,26,05,03,14.40
2016,08,26,05,04,14.40
2016,08,26,05,05,14.40
2016,08,26,05,06,14.30
2016,08,26,05,07,14.30
2016,08,26,05,08,14.30
2016,08,26,05,09,14.30
2016,08,26,05,10,14.30
2016,08,26,05,11,14.30
2016,08,26,05,12,14.30
2016,08,26,05,13,14.30
2016,08,26,05,14,14.20
2016,08,26,05,15,14.20
2016,08,26,05,16,14.20
2016,08,26,05,17,14.20
2016,08,26,05,18,14.30
2016,08,26,05,19,14.30
2016,08,26,05,20,14.30
2016,08,26,05,21,14.30
2016,08,26,05,22,14.30
2016,08,26,05,23,14.30
2016,08,26,05,24,14.30
2016,08,26,05,25,14.30
2016,08,26,05,26,14.30
2016,08,26,05,27,14.30
2016,08,26,05,28,14.30
2016,08,26,05,29,14.20
2016,08,26,05,30,14.20
2016,08,26,05,31,14.20
2016,08,26,05,32,14.10
2016,08,26,05,33,14.10
2016,08,26,05,34,14.10
2016,08,26,05,35,14.00
2016,08,26,05,36,14.00
2016,08,26,05,37,14.00
2016,08,26,05,38,13.90
2016,08,26,05,39,13.90
2016,08,26,05,40,13.80
2016,08,26,05,41,13.80
2016,08,26,05,42,13.80
2016,08,26,05,43,13.80
2016,08,26,05,44,13.80
2016,08,26,05,45,13.70
2016,08,26,05,46,13.70
2016,08,26,05,47,13.70
2016,08,26,05,48,13.70
2016,08,26,05,49,13.80
2016,08,26,05,50,13.80
2016,08,26,05,51,13.90
2016,08,26,05,52,14.00
2016,08,26,05,53,14.10
2016,08,26,05,54,14.10
2016,08,26,05,55,14.20
2016,08,26,05,56,14.20
2016,08,26,05,57,14.30
2016,08,26,05,58,14.30
2016,08,26,05,59,14.30
2016,08,26,06,00,14.40
2016,08,26,06,01,14.40
2016,08,26,06,02,14.40
2016,08,26,06,03,14.50
2016,08,26,06,04,14.60
2016,08,26,06,05,14.70
2016,08,26,06,06,14.80
2016,08,26,06,07,14.80
2016,08,26,06,08,14.90
2016,08,26,06,09,14.90
2016,08,26,06,10,14.90
2016,08,26,06,11,14.90
2016,08,26,06,12,15.00
2016,08,26,06,13,15.00
2016,08,26,06,14,15.00
2016,08,26,06,15,15.00
2016,08,26,06,16,15.00
2016,08,26,06,17,14.90
2016,08,26,06,18,14.90
2016,08,26,06,19,14.80
2016,08,26,06,20,14.80
2016,08,26,06,21,14.70
2016,08,26,06,22,14.70
2016,08,26,06,23,14.70
2016,08,26,06,24,14.80
2016,08,26,06,25,14.80
2016,08,26,06,26,14.80
2016,08,26,06,27,14.80
2016,08,26,06,28,14.70
2016,08,26,06,29,14.70
2016,08,26,06,30,14.70
2016,08,26,06,31,14.70
2016,08,26,06,32,14.80
2016,08,26,06,33,14.90
2016,08,26,06,34,14.90
2016,08,26,06,35,15.00
2016,08,26,06,36,15.00
2016,08,26,06,37,15.10
2016,08,26,06,38,15.10
2016,08,26,06,39,15.10
2016,08,26,06,40,15.10
2016,08,26,06,41,15.20
2016,08,26,06,42,15.20
2016,08,26,06,43,15.20
2016,08,26,06,44,15.30
2016,08,26,06,45,15.30
2016,08,26,06,46,15.30
2016,08,26,06,47,15.40
2016,08,26,06,48,15.50
2016,08,26,06,49,15.50
2016,08,26,06,50,15.60
2016,08,26,06,51,15.70
2016,08,26,06,52,15.80
2016,08,26,06,53,15.80
2016,08,26,06,54,15.80
2016,08,26,06,55,15.80
2016,08,26,06,56,15.80
2016,08,26,06,57,15.90
2016,08,26,06,58,15.90
2016,08,26,06,59,15.90
2016,08,26,07,00,15.90
2016,08,26,07,01,15.90
2016,08,26,07,02,15.90
2016,08,26,07,03,15.80
2016,08,26,07,04,15.80
2016,08,26,07,05,15.80
2016,08,26,07,06,15.80
2016,08,26,07,07,15.80
2016,08,26,07,08,15.80
2016,08,26,07,09,15.80
2016,08,26,07,10,15.80
2016,08,26,07,11,15.80
2016,08,26,07,12,15.80
2016,08,26,07,13,15.80
2016,08,26,07,14,15.80
2016,08,26,07,15,15.80
2016,08,26,07,16,15.80
2016,08,26,07,17,15.80
2016,08,26,07,18,15.80
2016,08,26,07,19,15.80
2016,08,26,07,20,15.80
2016,08,26,07,21,15.80
2016,08,26,07,22,15.90
2016,08,26,07,23,15.90
2016,08,26,07,24,15.90
2016,08,26,07,25,15.80
2016,08,26,07,26,15.80
2016,08,26,07,27,15.80
2016,08,26,07,28,15.70
2016,08,26,07,29,15.70
2016,08,26,07,30,15.70
2016,08,26,07,31,15.70
2016,08,26,07,32,15.70
2016,08,26,07,33,15.70
2016,08,26,07,34,15.80
2016,08,26,07,35,15.80
2016,08,26,07,36,15.80
2016,08,26,07,37,15.80
2016,08,26,07,38,15.80
2016,08,26,07,39,15.80
2016,08,26,07,40,15.90
2016,08,26,07,41,15.90
2016,08,26,07,42,15.90
2016,08,26,07,43,16.00
2016,08,26,07,44,16.10
2016,08,26,07,45,16.10
2016,08,26,07,46,16.20
2016,08,26,07,47,16.20
2016,08,26,07,48,16.30
2016,08,26,07,49,16.40
2016,08,26,07,50,16.40
2016,08,26,07,51,16.50
2016,08,26,07,52,16.60
2016,08,26,07,53,16.70
2016,08,26,07,54,16.70
2016,08,26,07,55,16.80
2016,08,26,07,56,16.80
2016,08,26,07,57,16.90
2016,08,26,07,58,16.90
2016,08,26,07,59,17.00
2016,08,26,08,00,17.00
2016,08,26,08,01,17.00
2016,08,26,08,02,17.10
2016,08,26,08,03,17.10
2016,08,26,08,04,17.20
2016,08,26,08,05,17.20
2016,08,26,08,06,17.20
2016,08,26,08,07,17.20
2016,08,26,08,08,17.30
2016,08,26,08,09,17.30
2016,08,26,08,10,17.40
2016,08,26,08,11,17.40
2016,08,26,08,12,17.50
2016,08,26,08,13,17.60
2016,08,26,08,14,17.70
2016,08,26,08,15,17.70
2016,08,26,08,16,17.80
2016,08,26,08,17,17.90
2016,08,26,08,18,18.00
2016,08,26,08,19,18.10
2016,08,26,08,20,18.20
2016,08,26,08,21,18.30
2016,08,26,08,22,18.50
2016,08,26,08,23,18.60
2016,08,26,08,24,18.80
2016,08,26,08,25,18.90
2016,08,26,08,26,19.10
2016,08,26,08,27,19.20
2016,08,26,08,28,19.30
2016,08,26,08,29,19.50
2016,08,26,08,30,19.50
2016,08,26,08,31,19.60
2016,08,26,08,32,19.70
2016,08,26,08,33,19.70
2016,08,26,08,34,19.80
2016,08,26,08,35,19.90
2016,08,26,08,36,19.90
2016,08,26,08,37,20.00
2016,08,26,08,38,20.00
2016,08,26,08,39,20.00
2016,08,26,08,40,20.00
2016,08,26,08,41,20.00
2016,08,26,08,42,20.00
2016,08,26,08,43,20.00
2016,08,26,08,44,20.00
2016,08,26,08,45,20.00
2016,08,26,08,46,20.00
2016,08,26,08,47,20.10
2016,08,26,08,48,20.10
2016,08,26,08,49,20.10
2016,08,26,08,50,20.10
2016,08,26,08,51,20.10
2016,08,26,08,52,20.20
2016,08,26,08,53,20.20
2016,08,26,08,54,20.30
2016,08,26,08,55,20.30
2016,08,26,08,56,20.40
2016,08,26,08,57,20.40
2016,08,26,08,58,20.50
2016,08,26,08,59,20.60
2016,08,26,09,00,20.70
2016,08,26,09,01,20.80
2016,08,26,09,02,20.90
2016,08,26,09,03,20.90
2016,08,26,09,04,21.00
2016,08,26,09,05,21.10
2016,08,26,09,06,21.20
2016,08,26,09,07,21.20
2016,08,26,09,08,21.30
2016,08,26,09,09,21.40
2016,08,26,09,10,21.50
2016,08,26,09,11,21.60
2016,08,26,09,12,21.70
2016,08,26,09,13,21.90
2016,08,26,09,14,22.10
2016,08,26,09,15,22.20
2016,08,26,09,16,22.40
2016,08,26,09,17,22.50
2016,08,26,09,18,22.60
2016,08,26,09,19,22.70
2016,08,26,09,20,22.80
2016,08,26,09,21,23.00
2016,08,26,09,22,23.20
2016,08,26,09,23,23.40
2016,08,26,09,24,23.60
2016,08,26,09,25,23.80
2016,08,26,09,26,23.90
2016,08,26,09,27,24.10
2016,08,26,09,28,24.20
2016,08,26,09,29,24.30
2016,08,26,09,30,24.50
2016,08,26,09,31,24.50
2016,08,26,09,32,24.60
2016,08,26,09,33,24.60
2016,08,26,09,34,24.60
2016,08,26,09,35,24.50
2016,08,26,09,36,24.40
2016,08,26,09,37,24.40
2016,08,26,09,38,24.40
2016,08,26,09,39,24.40
2016,08,26,09,40,24.40
2016,08,26,09,41,24.40
2016,08,26,09,42,24.40
2016,08,26,09,43,24.50
2016,08,26,09,44,24.60
2016,08,26,09,45,24.70
2016,08,26,09,46,24.80
2016,08,26,09,47,24.80
2016,08,26,09,48,24.90
2016,08,26,09,49,24.90
2016,08,26,09,50,24.90
2016,08,26,09,51,24.90
2016,08,26,09,52,24.90
2016,08,26,09,53,24.90
2016,08,26,09,54,25.00
2016,08,26,09,55,25.10
2016,08,26,09,56,25.10
2016,08,26,09,57,25.20
2016,08,26,09,58,25.20
2016,08,26,09,59,25.20
2016,08,26,10,00,25.20
2016,08,26,10,01,25.10
2016,08,26,10,02,25.00
2016,08,26,10,03,25.00
2016,08,26,10,04,25.00
2016,08,26,10,05,25.10
2016,08,26,10,06,25.30
2016,08,26,10,07,25.40
2016,08,26,10,08,25.50
2016,08,26,10,09,25.60
2016,08,26,10,10,25.70
2016,08,26,10,11,25.70
2016,08,26,10,12,25.70
2016,08,26,10,13,25.70
2016,08,26,10,14,25.70
2016,08,26,10,15,25.80
2016,08,26,10,16,25.90
2016,08,26,10,17,26.00
2016,08,26,10,18,26.00
2016,08,26,10,19,26.00
2016,08,26,10,20,26.10
2016,08,26,10,21,26.10
2016,08,26,10,22,26.10
2016,08,26,10,23,26.00
2016,08,26,10,24,26.00
2016,08,26,10,25,25.90
2016,08,26,10,26,25.90
2016,08,26,10,27,26.00
2016,08,26,10,28,26.00
2016,08,26,10,29,26.10
2016,08,26,10,30,26.20
2016,08,26,10,31,26.30
2016,08,26,10,32,26.40
2016,08,26,10,33,26.50
2016,08,26,10,34,26.60
2016,08,26,10,35,26.60
2016,08,26,10,36,26.70
2016,08,26,10,37,26.70
2016,08,26,10,38,26.70
2016,08,26,10,39,26.80
2016,08,26,10,40,26.80
2016,08,26,10,41,26.90
2016,08,26,10,42,26.90
2016,08,26,10,43,27.00
2016,08,26,10,44,27.00
2016,08,26,10,45,27.10
2016,08,26,10,46,27.10
2016,08,26,10,47,27.20
2016,08,26,10,48,27.20
2016,08,26,10,49,27.20
2016,08,26,10,50,27.20
2016,08,26,10,51,27.20
2016,08,26,10,52,27.30
2016,08,26,10,53,27.30
2016,08,26,10,54,27.30
2016,08,26,10,55,27.40
2016,08,26,10,56,27.50
2016,08,26,10,57,27.50
2016,08,26,10,58,27.50
2016,08,26,10,59,27.60
2016,08,26,11,00,27.60
2016,08,26,11,01,27.70
2016,08,26,11,02,27.70
2016,08,26,11,03,27.70
2016,08,26,11,04,27.70
2016,08,26,11,05,27.70
2016,08,26,11,06,27.70
2016,08,26,11,07,27.60
2016,08,26,11,08,27.60
2016,08,26,11,09,27.50
2016,08,26,11,10,27.40
2016,08,26,11,11,27.30
2016,08,26,11,12,27.30
2016,08,26,11,13,27.30
2016,08,26,11,14,27.30
2016,08,26,11,15,27.40
2016,08,26,11,16,27.40
2016,08,26,11,17,27.50
2016,08,26,11,18,27.50
2016,08,26,11,19,27.50
2016,08,26,11,20,27.60
2016,08,26,11,21,27.60
2016,08,26,11,22,27.70
2016,08,26,11,23,27.70
2016,08,26,11,24,27.70
2016,08,26,11,25,27.70
2016,08,26,11,26,27.70
2016,08,26,11,27,27.70
2016,08,26,11,28,27.70
2016,08,26,11,29,27.70
2016,08,26,11,30,27.70
2016,08,26,11,31,27.70
2016,08,26,11,32,27.80
2016,08,26,11,33,27.80
2016,08,26,11,34,27.80
2016,08,26,11,35,27.80
2016,08,26,11,36,27.80
2016,08,26,11,37,27.80
2016,08,26,11,38,27.70
2016,08,26,11,39,27.60
2016,08,26,11,40,27.50
2016,08,26,11,41,27.50
2016,08,26,11,42,27.50
2016,08,26,11,43,27.50
2016,08,26,11,44,27.50
2016,08,26,11,45,27.50
2016,08,26,11,46,27.40
2016,08,26,11,47,27.50
2016,08,26,11,48,27.50
2016,08,26,11,49,27.50
2016,08,26,11,50,27.60
2016,08,26,11,51,27.70
2016,08,26,11,52,27.80
2016,08,26,11,53,27.90
2016,08,26,11,54,28.00
2016,08,26,11,55,28.10
2016,08,26,11,56,28.20
2016,08,26,11,57,28.30
2016,08,26,11,58,28.20
2016,08,26,11,59,28.10
2016,08,26,12,00,28.00
2016,08,26,12,01,27.90
2016,08,26,12,02,27.80
2016,08,26,12,03,27.80
2016,08,26,12,04,27.60
2016,08,26,12,05,27.60
2016,08,26,12,06,27.60
2016,08,26,12,07,27.70
2016,08,26,12,08,27.70
2016,08,26,12,09,27.60
2016,08,26,12,10,27.60
2016,08,26,12,11,27.60
2016,08,26,12,12,27.60
2016,08,26,12,13,27.70
2016,08,26,12,14,27.80
2016,08,26,12,15,27.80
2016,08,26,12,16,27.80
2016,08,26,12,17,27.80
2016,08,26,12,18,27.80
2016,08,26,12,19,27.70
2016,08,26,12,20,27.70
2016,08,26,12,21,27.70
2016,08,26,12,22,27.60
2016,08,26,12,23,27.50
2016,08,26,12,24,27.40
2016,08,26,12,25,27.10
2016,08,26,12,26,27.00
2016,08,26,12,27,26.80
2016,08,26,12,28,26.60
2016,08,26,12,29,26.30
2016,08,26,12,30,26.20
2016,08,26,12,31,26.10
2016,08,26,12,32,26.00
2016,08,26,12,33,26.00
2016,08,26,12,34,25.90
2016,08,26,12,35,26.00
2016,08,26,12,36,26.00
2016,08,26,12,37,26.00
2016,08,26,12,38,26.00
2016,08,26,12,39,26.00
2016,08,26,12,40,26.00
2016,08,26,12,41,26.10
2016,08,26,12,42,26.20
2016,08,26,12,43,26.30
2016,08,26,12,44,26.50
2016,08,26,12,45,26.60
2016,08,26,12,46,26.60
2016,08,26,12,47,26.60
2016,08,26,12,48,26.70
2016,08,26,12,49,26.70
2016,08,26,12,50,26.70
2016,08,26,12,51,26.80
2016,08,26,12,52,26.80
2016,08,26,12,53,26.70
2016,08,26,12,54,26.60
2016,08,26,12,55,26.50
2016,08,26,12,56,26.40
2016,08,26,12,57,26.30
2016,08,26,12,58,26.20
2016,08,26,12,59,26.10
2016,08,26,13,00,26.10
2016,08,26,13,01,26.00
2016,08,26,13,02,25.80
2016,08,26,13,03,25.60
2016,08,26,13,04,25.50
2016,08,26,13,05,25.40
2016,08,26,13,06,25.40
2016,08,26,13,07,25.30
2016,08,26,13,08,25.20
2016,08,26,13,09,25.20
2016,08,26,13,10,25.20
2016,08,26,13,11,25.20
2016,08,26,13,12,25.20
2016,08,26,13,13,25.20
2016,08,26,13,14,25.20
2016,08,26,13,15,25.20
2016,08,26,13,16,25.20
2016,08,26,13,17,25.20
2016,08,26,13,18,25.20
2016,08,26,13,19,25.20
2016,08,26,13,20,25.30
2016,08,26,13,21,25.30
2016,08,26,13,22,25.30
2016,08,26,13,23,25.30
2016,08,26,13,24,25.40
2016,08,26,13,25,25.40
2016,08,26,13,26,25.40
2016,08,26,13,27,25.40
2016,08,26,13,28,25.40
2016,08,26,13,29,25.30
2016,08,26,13,30,25.20
2016,08,26,13,31,25.20
2016,08,26,13,32,25.20
2016,08,26,13,33,25.00
2016,08,26,13,34,24.80
2016,08,26,13,35,24.70
2016,08,26,13,36,24.60
2016,08,26,13,37,24.60
2016,08,26,13,38,24.40
2016,08,26,13,39,24.30
2016,08,26,13,40,24.20
2016,08,26,13,41,24.10
2016,08,26,13,42,24.10
2016,08,26,13,43,24.10
2016,08,26,13,44,23.90
2016,08,26,13,45,23.80
2016,08,26,13,46,23.70
2016,08,26,13,47,23.70
2016,08,26,13,48,23.70
2016,08,26,13,49,23.70
2016,08,26,13,50,23.80
2016,08,26,13,51,23.90
2016,08,26,13,52,24.10
2016,08,26,13,53,24.10
2016,08,26,13,54,24.20
2016,08,26,13,55,24.20
2016,08,26,13,56,24.30
2016,08,26,13,57,24.30
2016,08,26,13,58,24.30
2016,08,26,13,59,24.30
2016,08,26,14,00,24.30
2016,08,26,14,01,24.20
2016,08,26,14,02,24.20
2016,08,26,14,03,24.10
2016,08,26,14,04,24.20
2016,08,26,14,05,24.20
2016,08,26,14,06,24.20
2016,08,26,14,07,24.20
2016,08,26,14,08,24.20
2016,08,26,14,09,24.30
2016,08,26,14,10,24.30
2016,08,26,14,11,24.40
2016,08,26,14,12,24.60
2016,08,26,14,13,24.70
2016,08,26,14,14,24.80
2016,08,26,14,15,24.90
2016,08,26,14,16,25.00
2016,08,26,14,17,25.00
2016,08,26,14,18,25.10
2016,08,26,14,19,25.10
2016,08,26,14,20,25.20
2016,08,26,14,21,25.20
2016,08,26,14,22,25.30
2016,08,26,14,23,25.40
2016,08,26,14,24,25.50
2016,08,26,14,25,25.60
2016,08,26,14,26,25.60
2016,08,26,14,27,25.70
2016,08,26,14,28,25.70
2016,08,26,14,29,25.70
2016,08,26,14,30,25.70
2016,08,26,14,31,25.70
2016,08,26,14,32,25.70
2016,08,26,14,33,25.60
2016,08,26,14,34,25.60
2016,08,26,14,35,25.70
2016,08,26,14,36,25.70
2016,08,26,14,37,25.70
2016,08,26,14,38,25.80
2016,08,26,14,39,25.80
2016,08,26,14,40,25.90
2016,08,26,14,41,26.00
2016,08,26,14,42,26.10
2016,08,26,14,43,26.10
2016,08,26,14,44,26.20
2016,08,26,14,45,26.30
2016,08,26,14,46,26.30
2016,08,26,14,47,26.30
2016,08,26,14,48,26.30
2016,08,26,14,49,26.20
2016,08,26,14,50,26.20
2016,08,26,14,51,26.20
2016,08,26,14,52,26.30
2016,08,26,14,53,26.30
2016,08,26,14,54,26.30
2016,08,26,14,55,26.30
2016,08,26,14,56,26.30
2016,08,26,14,57,26.30
2016,08,26,14,58,26.30
2016,08,26,14,59,26.30
2016,08,26,15,00,26.40
2016,08,26,15,01,26.50
2016,08,26,15,02,26.50
2016,08,26,15,03,26.60
2016,08,26,15,04,26.60
2016,08,26,15,05,26.50
2016,08,26,15,06,26.60
2016,08,26,15,07,26.60
2016,08,26,15,08,26.60
2016,08,26,15,09,26.50
2016,08,26,15,10,26.40
2016,08,26,15,11,26.30
2016,08,26,15,12,26.10
2016,08,26,15,13,25.90
2016,08,26,15,14,25.80
2016,08,26,15,15,25.70
2016,08,26,15,16,25.60
2016,08,26,15,17,25.60
2016,08,26,15,18,25.60
2016,08,26,15,19,25.60
2016,08,26,15,20,25.60
2016,08,26,15,21,25.60
2016,08,26,15,22,25.60
2016,08,26,15,23,25.70
2016,08,26,15,24,25.70
2016,08,26,15,25,25.60
2016,08,26,15,26,25.60
2016,08,26,15,27,25.60
2016,08,26,15,28,25.60
2016,08,26,15,29,25.60
2016,08,26,15,30,25.60
2016,08,26,15,31,25.60
2016,08,26,15,32,25.60
2016,08,26,15,33,25.60
2016,08,26,15,34,25.50
2016,08,26,15,35,25.40
2016,08,26,15,36,25.30
2016,08,26,15,37,25.10
2016,08,26,15,38,25.00
2016,08,26,15,39,24.90
2016,08,26,15,40,24.80
2016,08,26,15,41,24.70
2016,08,26,15,42,24.60
2016,08,26,15,43,24.50
2016,08,26,15,44,24.40
2016,08,26,15,45,24.30
2016,08,26,15,46,24.20
2016,08,26,15,47,24.10
2016,08,26,15,48,24.10
2016,08,26,15,49,23.90
2016,08,26,15,50,23.70
2016,08,26,15,51,23.50
2016,08,26,15,52,23.40
2016,08,26,15,53,23.20
2016,08,26,15,54,23.10
2016,08,26,15,55,22.90
2016,08,26,15,56,22.80
2016,08,26,15,57,22.70
2016,08,26,15,58,22.60
2016,08,26,15,59,22.60
2016,08,26,16,00,22.50
2016,08,26,16,01,22.50
2016,08,26,16,02,22.50
2016,08,26,16,03,22.60
2016,08,26,16,04,22.60
2016,08,26,16,05,22.70
2016,08,26,16,06,22.70
2016,08,26,16,07,22.70
2016,08,26,16,08,22.80
2016,08,26,16,09,22.80
2016,08,26,16,10,22.80
2016,08,26,16,11,22.80
2016,08,26,16,12,22.90
2016,08,26,16,13,23.00
2016,08,26,16,14,23.00
2016,08,26,16,15,23.10
2016,08,26,16,16,23.10
2016,08,26,16,17,23.20
2016,08,26,16,18,23.20
2016,08,26,16,19,23.20
2016,08,26,16,20,23.10
2016,08,26,16,21,23.00
2016,08,26,16,22,23.00
2016,08,26,16,23,23.00
2016,08,26,16,24,22.90
2016,08,26,16,25,22.90
2016,08,26,16,26,22.90
2016,08,26,16,27,22.90
2016,08,26,16,28,22.90
2016,08,26,16,29,22.90
2016,08,26,16,30,22.90
2016,08,26,16,31,22.90
2016,08,26,16,32,22.80
2016,08,26,16,33,22.70
2016,08,26,16,34,22.70
2016,08,26,16,35,22.70
2016,08,26,16,36,22.60
2016,08,26,16,37,22.60
2016,08,26,16,38,22.60
2016,08,26,16,39,22.50
2016,08,26,16,40,22.50
2016,08,26,16,41,22.60
2016,08,26,16,42,22.60
2016,08,26,16,43,22.60
2016,08,26,16,44,22.50
2016,08,26,16,45,22.50
2016,08,26,16,46,22.40
2016,08,26,16,47,22.40
2016,08,26,16,48,22.40
2016,08,26,16,49,22.40
2016,08,26,16,50,22.50
2016,08,26,16,51,22.60
2016,08,26,16,52,22.70
2016,08,26,16,53,22.70
2016,08,26,16,54,22.80
2016,08,26,16,55,22.90
2016,08,26,16,56,22.90
2016,08,26,16,57,22.90
2016,08,26,16,58,22.90
2016,08,26,16,59,22.90
2016,08,26,17,00,22.90
2016,08,26,17,01,22.90
2016,08,26,17,02,23.00
2016,08,26,17,03,23.10
2016,08,26,17,04,23.10
2016,08,26,17,05,23.20
2016,08,26,17,06,23.20
2016,08,26,17,07,23.20
2016,08,26,17,08,23.20
2016,08,26,17,09,23.20
2016,08,26,17,10,23.20
2016,08,26,17,11,23.20
2016,08,26,17,12,23.20
2016,08,26,17,13,23.20
2016,08,26,17,14,23.20
2016,08,26,17,15,23.10
2016,08,26,17,16,23.20
2016,08,26,17,17,23.20
2016,08,26,17,18,23.20
2016,08,26,17,19,23.20